Time,TemperatureF,DewpointF,PressureIn,WindDirection,WindDirectionDegrees,WindSpeedMPH,WindSpeedGustMPH,Humidity,HourlyPrecipIn,Conditions,Clouds,dailyrainin,SoftwareType,DateUTC
2013-09-23 00:00:00,57.5,50.7,29.86,SE,135,5.0,10.0,78,0.00,,---,0.00,VWS V14.01,2013-09-23 05:00:00,
2013-09-23 00:06:00,57.4,51.0,29.86,SSE,152,6.0,10.0,78,0.00,,,0.00,weatherlink.com 1.10,2013-09-23 05:06:00,
2013-09-23 00:21:00,57.2,51.0,29.86,SE,141,2.0,8.0,79,0.00,,,0.00,weatherlink.com 1.10,2013-09-23 05:21:00,
2013-09-23 00:30:00,57.0,50.9,29.86,SE,135,4.0,9.0,80,0.00,,---,0.00,VWS V14.01,2013-09-23 05:30:00,
2013-09-23 00:36:00,57.0,51.0,29.86,SE,140,6.0,8.0,79,0.00,,,0.00,weatherlink.com 1.10,2013-09-23 05:36:00,
2013-09-23 00:51:00,57.1,51.0,29.86,SSE,156,5.0,9.0,79,0.00,,,0.00,weatherlink.com 1.10,2013-09-23 05:51:00,
2013-09-23 01:00:00,57.1,51.0,29.86,SSE,158,5.0,10.0,80,0.00,,---,0.00,VWS V14.01,2013-09-23 06:00:00,
2013-09-23 01:06:00,56.9,51.0,29.86,SE,127,5.0,8.0,80,0.00,,,0.00,weatherlink.com 1.10,2013-09-23 06:06:00,
2013-09-23 01:21:00,56.7,51.0,29.85,SE,136,5.0,9.0,81,0.00,,,0.00,weatherlink.com 1.10,2013-09-23 06:21:00,
2013-09-23 01:30:00,57.2,51.1,29.85,SE,135,5.0,10.0,80,0.00,,---,0.00,VWS V14.01,2013-09-23 06:30:00,
2013-09-23 01:36:00,57.3,51.0,29.85,SE,141,5.0,11.0,80,0.00,,,0.00,weatherlink.com 1.10,2013-09-23 06:36:00,
2013-09-23 01:51:00,56.8,51.0,29.85,SE,142,7.0,9.0,81,0.00,,,0.00,weatherlink.com 1.10,2013-09-23 06:51:00,
2013-09-23 02:00:00,56.5,50.8,29.85,SSE,158,6.0,11.0,81,0.00,,---,0.00,VWS V14.01,2013-09-23 07:00:00,
2013-09-23 02:06:00,56.4,51.0,29.85,SE,139,5.0,9.0,82,0.00,,,0.00,weatherlink.com 1.10,2013-09-23 07:06:00,
2013-09-23 02:21:00,56.8,51.0,29.85,SSE,157,6.0,10.0,81,0.00,,,0.00,weatherlink.com 1.10,2013-09-23 07:21:00,
2013-09-23 02:30:00,56.8,51.0,29.85,SSE,158,6.0,11.0,81,0.00,,---,0.00,VWS V14.01,2013-09-23 07:30:00,
2013-09-23 02:36:00,56.8,51.0,29.85,SSE,160,6.0,11.0,81,0.00,,,0.00,weatherlink.com 1.10,2013-09-23 07:36:00,
2013-09-23 02:51:00,56.7,51.0,29.85,SSE,153,6.0,8.0,81,0.00,,,0.00,weatherlink.com 1.10,2013-09-23 07:51:00,
2013-09-23 03:00:00,56.5,50.8,29.85,SSE,158,5.0,11.0,81,0.00,,---,0.00,VWS V14.01,2013-09-23 08:00:00,
2013-09-23 03:06:00,56.6,51.0,29.85,SSE,162,7.0,9.0,81,0.00,,,0.00,weatherlink.com 1.10,2013-09-23 08:06:00,
2013-09-23 03:21:00,56.6,51.0,29.86,SSE,166,4.0,8.0,81,0.00,,,0.00,weatherlink.com 1.10,2013-09-23 08:21:00,
2013-09-23 03:30:00,56.4,51.0,29.85,SSE,158,5.0,10.0,82,0.00,,---,0.00,VWS V14.01,2013-09-23 08:30:00,
2013-09-23 03:36:00,56.5,51.0,29.85,SSE,167,5.0,9.0,82,0.00,,,0.00,weatherlink.com 1.10,2013-09-23 08:36:00,
2013-09-23 03:51:00,56.1,51.0,29.85,SE,142,5.0,9.0,82,0.00,,,0.00,weatherlink.com 1.10,2013-09-23 08:51:00,
2013-09-23 04:00:00,55.7,50.6,29.85,SSE,158,5.0,9.0,83,0.00,,---,0.00,VWS V14.01,2013-09-23 09:00:00,
2013-09-23 04:06:00,55.5,51.0,29.85,SSE,163,4.0,8.0,84,0.00,,,0.00,weatherlink.com 1.10,2013-09-23 09:06:00,
2013-09-23 04:21:00,55.4,51.0,29.85,South,173,5.0,10.0,84,0.00,,,0.00,weatherlink.com 1.10,2013-09-23 09:21:00,
2013-09-23 04:30:00,55.3,50.6,29.85,SSE,158,5.0,10.0,84,0.00,,---,0.00,VWS V14.01,2013-09-23 09:30:00,
2013-09-23 04:36:00,55.2,51.0,29.85,SE,143,4.0,7.0,84,0.00,,,0.00,weatherlink.com 1.10,2013-09-23 09:36:00,
2013-09-23 04:51:00,55.0,51.0,29.86,SE,144,5.0,8.0,85,0.00,,,0.00,weatherlink.com 1.10,2013-09-23 09:51:00,
2013-09-23 05:00:00,54.7,50.6,29.85,SE,135,4.0,8.0,86,0.00,,---,0.00,VWS V14.01,2013-09-23 10:00:00,
2013-09-23 05:06:00,54.4,50.0,29.86,SE,142,4.0,8.0,86,0.00,,,0.00,weatherlink.com 1.10,2013-09-23 10:06:00,
2013-09-23 05:21:00,54.1,50.0,29.86,SSE,157,4.0,7.0,87,0.00,,,0.00,weatherlink.com 1.10,2013-09-23 10:21:00,
2013-09-23 05:30:00,53.8,50.3,29.85,SE,135,4.0,7.0,88,0.00,,---,0.00,VWS V14.01,2013-09-23 10:30:00,
2013-09-23 05:36:00,53.7,50.0,29.85,SSE,160,4.0,6.0,88,0.00,,,0.00,weatherlink.com 1.10,2013-09-23 10:36:00,
2013-09-23 05:51:00,53.5,50.0,29.85,SE,139,3.0,6.0,88,0.00,,,0.00,weatherlink.com 1.10,2013-09-23 10:51:00,
2013-09-23 06:00:00,53.7,50.2,29.85,SE,135,4.0,8.0,88,0.00,,---,0.00,VWS V14.01,2013-09-23 11:00:00,
2013-09-23 06:06:00,53.8,50.0,29.85,SE,146,5.0,9.0,88,0.00,,,0.00,weatherlink.com 1.10,2013-09-23 11:06:00,
2013-09-23 06:22:00,53.8,50.0,29.85,SE,144,5.0,11.0,88,0.00,,,0.00,weatherlink.com 1.10,2013-09-23 11:22:00,
2013-09-23 06:30:00,53.5,50.0,29.85,SSE,158,6.0,11.0,88,0.00,,---,0.00,VWS V14.01,2013-09-23 11:30:00,
2013-09-23 06:37:00,53.3,50.0,29.85,SSE,153,5.0,9.0,89,0.00,,,0.00,weatherlink.com 1.10,2013-09-23 11:37:00,
2013-09-23 06:52:00,53.3,50.0,29.85,SE,137,5.0,12.0,89,0.00,,,0.00,weatherlink.com 1.10,2013-09-23 11:52:00,
2013-09-23 07:00:00,53.3,50.2,29.85,SSE,158,6.0,12.0,89,0.00,,---,0.00,VWS V14.01,2013-09-23 12:00:00,
2013-09-23 07:07:00,53.2,50.0,29.86,SE,145,6.0,10.0,89,0.00,,,0.00,weatherlink.com 1.10,2013-09-23 12:07:00,
2013-09-23 07:22:00,53.4,50.0,29.86,SSE,157,4.0,8.0,88,0.00,,,0.00,weatherlink.com 1.10,2013-09-23 12:22:00,
2013-09-23 07:30:00,53.5,50.3,29.86,SSE,158,4.0,8.0,89,0.00,,---,0.00,VWS V14.01,2013-09-23 12:30:00,
2013-09-23 07:37:00,53.5,50.0,29.86,SSE,156,5.0,8.0,89,0.00,,,0.00,weatherlink.com 1.10,2013-09-23 12:37:00,
2013-09-23 07:52:00,54.2,51.0,29.87,SSE,163,4.0,7.0,88,0.00,,,0.00,weatherlink.com 1.10,2013-09-23 12:52:00,
2013-09-23 08:00:00,54.9,51.1,29.87,SSE,158,4.0,8.0,87,0.00,,---,0.00,VWS V14.01,2013-09-23 13:00:00,
2013-09-23 08:07:00,55.4,52.0,29.87,SSE,156,2.0,9.0,87,0.00,,,0.00,weatherlink.com 1.10,2013-09-23 13:07:00,
2013-09-23 08:22:00,57.1,52.0,29.88,South,182,6.0,10.0,84,0.00,,,0.00,weatherlink.com 1.10,2013-09-23 13:22:00,
2013-09-23 08:30:00,58.0,52.5,29.88,SSE,158,6.0,13.0,82,0.00,,---,0.00,VWS V14.01,2013-09-23 13:30:00,
2013-09-23 08:37:00,58.5,53.0,29.88,South,173,8.0,14.0,81,0.00,,,0.00,weatherlink.com 1.10,2013-09-23 13:37:00,
2013-09-23 08:52:00,60.1,53.0,29.89,South,169,7.0,11.0,78,0.00,,,0.00,weatherlink.com 1.10,2013-09-23 13:52:00,
2013-09-23 09:00:00,61.0,53.8,29.89,South,180,7.0,14.0,77,0.00,,---,0.00,VWS V14.01,2013-09-23 14:00:00,
2013-09-23 09:07:00,61.5,54.0,29.89,South,184,11.0,14.0,75,0.00,,,0.00,weatherlink.com 1.10,2013-09-23 14:07:00,
2013-09-23 09:22:00,62.4,54.0,29.90,South,176,9.0,13.0,73,0.00,,,0.00,weatherlink.com 1.10,2013-09-23 14:22:00,
2013-09-23 09:30:00,63.4,53.8,29.89,South,180,8.0,16.0,71,0.00,,---,0.00,VWS V14.01,2013-09-23 14:30:00,
2013-09-23 09:37:00,64.2,54.0,29.89,SSW,202,7.0,14.0,70,0.00,,,0.00,weatherlink.com 1.10,2013-09-23 14:37:00,
2013-09-23 09:52:00,65.1,54.0,29.89,SSW,198,11.0,14.0,68,0.00,,,0.00,weatherlink.com 1.10,2013-09-23 14:52:00,
2013-09-23 10:00:00,65.6,54.0,29.89,South,180,9.0,20.0,66,0.00,,---,0.00,VWS V14.01,2013-09-23 15:00:00,
2013-09-23 10:07:00,65.7,54.0,29.89,South,189,9.0,21.0,66,0.00,,,0.00,weatherlink.com 1.10,2013-09-23 15:07:00,
2013-09-23 10:22:00,67.5,54.0,29.88,South,178,11.0,18.0,63,0.00,,,0.00,weatherlink.com 1.10,2013-09-23 15:22:00,
2013-09-23 10:30:00,68.2,54.2,29.88,South,180,9.0,21.0,61,0.00,,---,0.00,VWS V14.01,2013-09-23 15:30:00,
2013-09-23 10:37:00,68.2,54.0,29.88,South,177,10.0,19.0,61,0.00,,,0.00,weatherlink.com 1.10,2013-09-23 15:37:00,
2013-09-23 10:52:00,69.9,54.0,29.88,South,171,8.0,21.0,58,0.00,,,0.00,weatherlink.com 1.10,2013-09-23 15:52:00,
2013-09-23 11:00:00,70.1,54.2,29.88,South,180,9.0,21.0,57,0.00,,---,0.00,VWS V14.01,2013-09-23 16:00:00,
2013-09-23 11:07:00,69.6,54.0,29.87,SSW,207,8.0,22.0,57,0.00,,,0.00,weatherlink.com 1.10,2013-09-23 16:07:00,
2013-09-23 11:22:00,70.5,54.0,29.87,South,179,9.0,22.0,56,0.00,,,0.00,weatherlink.com 1.10,2013-09-23 16:22:00,
2013-09-23 11:30:00,71.5,55.0,29.87,South,180,10.0,22.0,56,0.00,,---,0.00,VWS V14.01,2013-09-23 16:30:00,
2013-09-23 11:37:00,72.2,54.0,29.87,South,179,11.0,18.0,53,0.00,,,0.00,weatherlink.com 1.10,2013-09-23 16:37:00,
2013-09-23 11:52:00,71.7,54.0,29.86,South,184,10.0,19.0,54,0.00,,,0.00,weatherlink.com 1.10,2013-09-23 16:52:00,
2013-09-23 12:00:00,72.3,54.7,29.86,South,180,10.0,20.0,54,0.00,,---,0.00,VWS V14.01,2013-09-23 17:00:00,
2013-09-23 12:07:00,73.3,54.0,29.86,SE,145,9.0,18.0,51,0.00,,,0.00,weatherlink.com 1.10,2013-09-23 17:07:00,
2013-09-23 12:22:00,73.5,54.0,29.85,SE,142,12.0,16.0,51,0.00,,,0.00,weatherlink.com 1.10,2013-09-23 17:22:00,
2013-09-23 12:30:00,72.9,53.7,29.85,South,180,9.0,20.0,51,0.00,,---,0.00,VWS V14.01,2013-09-23 17:30:00,
2013-09-23 12:38:00,73.4,53.0,29.84,South,174,9.0,18.0,49,0.00,,,0.00,weatherlink.com 1.10,2013-09-23 17:38:00,
2013-09-23 13:00:00,73.8,55.1,29.84,South,180,10.0,18.0,52,0.00,,---,0.00,VWS V14.01,2013-09-23 18:00:00,
2013-09-23 13:08:00,73.9,54.0,29.83,SSE,167,10.0,18.0,50,0.00,,,0.00,weatherlink.com 1.10,2013-09-23 18:08:00,
2013-09-23 13:23:00,74.7,54.0,29.83,South,178,7.0,16.0,48,0.00,,,0.00,weatherlink.com 1.10,2013-09-23 18:23:00,
2013-09-23 13:30:00,74.8,54.9,29.82,SSE,158,9.0,16.0,50,0.00,,---,0.00,VWS V14.01,2013-09-23 18:30:00,
2013-09-23 13:38:00,75.3,55.0,29.82,South,186,11.0,20.0,49,0.00,,,0.00,weatherlink.com 1.10,2013-09-23 18:38:00,
2013-09-23 13:53:00,75.6,53.0,29.81,South,188,12.0,18.0,46,0.00,,,0.00,weatherlink.com 1.10,2013-09-23 18:53:00,
2013-09-23 14:00:00,76.0,54.3,29.81,SSE,158,10.0,20.0,47,0.00,,---,0.00,VWS V14.01,2013-09-23 19:00:00,
2013-09-23 14:08:00,76.2,53.0,29.80,South,169,12.0,16.0,45,0.00,,,0.00,weatherlink.com 1.10,2013-09-23 19:08:00,
2013-09-23 14:23:00,76.0,54.0,29.80,South,188,9.0,18.0,46,0.00,,,0.00,weatherlink.com 1.10,2013-09-23 19:23:00,
2013-09-23 14:30:00,76.1,53.2,29.80,SSE,158,10.0,19.0,45,0.00,,---,0.00,VWS V14.01,2013-09-23 19:30:00,
2013-09-23 14:38:00,76.5,54.0,29.80,SE,135,8.0,19.0,46,0.00,,,0.00,weatherlink.com 1.10,2013-09-23 19:38:00,
2013-09-23 14:53:00,76.7,54.0,29.79,SSE,162,6.0,19.0,45,0.00,,,0.00,weatherlink.com 1.10,2013-09-23 19:53:00,
2013-09-23 15:00:00,77.0,52.2,29.79,SE,135,10.0,19.0,42,0.00,,---,0.00,VWS V14.01,2013-09-23 20:00:00,
2013-09-23 15:08:00,77.0,52.0,29.79,SE,144,6.0,19.0,42,0.00,,,0.00,weatherlink.com 1.10,2013-09-23 20:08:00,
2013-09-23 15:23:00,77.0,53.0,29.79,SSE,155,6.0,20.0,43,0.00,,,0.00,weatherlink.com 1.10,2013-09-23 20:23:00,
2013-09-23 15:30:00,76.8,52.0,29.78,SSE,158,10.0,20.0,42,0.00,,---,0.00,VWS V14.01,2013-09-23 20:30:00,
2013-09-23 15:38:00,77.1,52.0,29.79,ESE,122,6.0,18.0,42,0.00,,,0.00,weatherlink.com 1.10,2013-09-23 20:38:00,
2013-09-23 15:53:00,76.8,53.0,29.79,SE,127,6.0,15.0,43,0.00,,,0.00,weatherlink.com 1.10,2013-09-23 20:53:00,
2013-09-23 16:00:00,76.8,52.0,29.78,SSE,158,9.0,22.0,42,0.00,,---,0.00,VWS V14.01,2013-09-23 21:00:00,
2013-09-23 16:08:00,76.6,52.0,29.78,SE,143,11.0,18.0,42,0.00,,,0.00,weatherlink.com 1.10,2013-09-23 21:08:00,
2013-09-23 16:23:00,76.1,51.0,29.77,SE,143,5.0,19.0,42,0.00,,,0.00,weatherlink.com 1.10,2013-09-23 21:23:00,
2013-09-23 16:30:00,76.5,51.7,29.77,SE,135,9.0,19.0,42,0.00,,---,0.00,VWS V14.01,2013-09-23 21:30:00,
2013-09-23 16:38:00,76.0,51.0,29.77,ESE,121,11.0,18.0,42,0.00,,,0.00,weatherlink.com 1.10,2013-09-23 21:38:00,
2013-09-23 16:53:00,75.8,50.0,29.76,SSE,148,9.0,20.0,40,0.00,,,0.00,weatherlink.com 1.10,2013-09-23 21:53:00,
2013-09-23 17:00:00,75.7,49.7,29.75,SE,135,10.0,23.0,40,0.00,,---,0.00,VWS V14.01,2013-09-23 22:00:00,
2013-09-23 17:08:00,75.2,50.0,29.75,SE,138,8.0,23.0,41,0.00,,,0.00,weatherlink.com 1.10,2013-09-23 22:08:00,
2013-09-23 17:23:00,75.3,51.0,29.75,SE,139,7.0,15.0,42,0.00,,,0.00,weatherlink.com 1.10,2013-09-23 22:23:00,
2013-09-23 17:30:00,74.9,49.0,29.76,SE,135,9.0,23.0,40,0.00,,---,0.00,VWS V14.01,2013-09-23 22:30:00,
2013-09-23 17:38:00,74.7,49.0,29.76,SSE,165,13.0,19.0,41,0.00,,,0.00,weatherlink.com 1.10,2013-09-23 22:38:00,
2013-09-23 17:53:00,74.0,51.0,29.75,ESE,115,7.0,13.0,45,0.00,,,0.00,weatherlink.com 1.10,2013-09-23 22:53:00,
2013-09-23 18:00:00,73.8,49.3,29.74,SE,135,9.0,19.0,42,0.00,,---,0.00,VWS V14.01,2013-09-23 23:00:00,
2013-09-23 18:08:00,73.3,48.0,29.74,South,178,11.0,20.0,41,0.00,,,0.00,weatherlink.com 1.10,2013-09-23 23:08:00,
2013-09-23 18:23:00,72.1,51.0,29.74,SSE,154,11.0,12.0,47,0.00,,,0.00,weatherlink.com 1.10,2013-09-23 23:23:00,
2013-09-23 18:30:00,71.7,49.8,29.75,SE,135,8.0,20.0,46,0.00,,---,0.00,VWS V14.01,2013-09-23 23:30:00,
2013-09-23 18:38:00,71.0,50.0,29.75,ESE,109,4.0,10.0,48,0.00,,,0.00,weatherlink.com 1.10,2013-09-23 23:38:00,
2013-09-23 18:53:00,70.2,50.0,29.75,South,171,6.0,13.0,49,0.00,,,0.00,weatherlink.com 1.10,2013-09-23 23:53:00,
2013-09-23 19:00:00,69.5,50.1,29.75,SE,135,6.0,13.0,50,0.00,,---,0.00,VWS V14.01,2013-09-24 00:00:00,
2013-09-23 19:08:00,69.0,50.0,29.75,SE,124,5.0,12.0,52,0.00,,,0.00,weatherlink.com 1.10,2013-09-24 00:08:00,
2013-09-23 19:23:00,67.8,51.0,29.75,ESE,109,5.0,11.0,55,0.00,,,0.00,weatherlink.com 1.10,2013-09-24 00:23:00,
2013-09-23 19:30:00,67.7,51.0,29.75,SE,135,6.0,12.0,55,0.00,,---,0.00,VWS V14.01,2013-09-24 00:30:00,
2013-09-23 19:38:00,67.2,51.0,29.75,SE,130,6.0,9.0,56,0.00,,,0.00,weatherlink.com 1.10,2013-09-24 00:38:00,
2013-09-23 19:53:00,66.3,51.0,29.76,SE,129,4.0,9.0,58,0.00,,,0.00,weatherlink.com 1.10,2013-09-24 00:53:00,
2013-09-23 20:00:00,65.3,51.1,29.76,SE,135,5.0,9.0,60,0.00,,---,0.00,VWS V14.01,2013-09-24 01:00:00,
2013-09-23 20:08:00,65.3,51.0,29.77,SSE,153,3.0,9.0,60,0.00,,,0.00,weatherlink.com 1.10,2013-09-24 01:08:00,
2013-09-23 20:23:00,63.7,51.0,29.78,SE,142,3.0,6.0,63,0.00,,,0.00,weatherlink.com 1.10,2013-09-24 01:23:00,
2013-09-23 20:30:00,63.4,51.4,29.79,SE,135,4.0,9.0,65,0.00,,---,0.00,VWS V14.01,2013-09-24 01:30:00,
2013-09-23 20:38:00,63.5,51.0,29.79,South,172,4.0,8.0,65,0.00,,,0.00,weatherlink.com 1.10,2013-09-24 01:38:00,
2013-09-23 20:53:00,63.6,52.0,29.79,SE,144,6.0,8.0,66,0.00,,,0.00,weatherlink.com 1.10,2013-09-24 01:53:00,
2013-09-23 21:00:00,63.7,52.1,29.79,SE,135,4.0,9.0,66,0.00,,---,0.00,VWS V14.01,2013-09-24 02:00:00,
2013-09-23 21:08:00,63.3,52.0,29.80,SE,125,6.0,9.0,67,0.00,,,0.00,weatherlink.com 1.10,2013-09-24 02:08:00,
2013-09-23 21:23:00,62.8,52.0,29.80,SE,144,3.0,9.0,68,0.00,,,0.00,weatherlink.com 1.10,2013-09-24 02:23:00,
2013-09-23 21:30:00,62.5,52.2,29.79,SE,135,5.0,9.0,69,0.00,,---,0.00,VWS V14.01,2013-09-24 02:30:00,
2013-09-23 21:38:00,61.9,52.0,29.79,ESE,123,6.0,9.0,71,0.00,,,0.00,weatherlink.com 1.10,2013-09-24 02:38:00,
2013-09-23 21:53:00,62.1,53.0,29.79,ESE,115,5.0,10.0,71,0.00,,,0.00,weatherlink.com 1.10,2013-09-24 02:53:00,
2013-09-23 22:00:00,62.6,52.7,29.80,SE,135,5.0,10.0,70,0.00,,---,0.00,VWS V14.01,2013-09-24 03:00:00,
2013-09-23 22:08:00,62.9,53.0,29.80,South,175,9.0,14.0,69,0.00,,,0.00,weatherlink.com 1.10,2013-09-24 03:08:00,
2013-09-23 22:23:00,63.6,53.0,29.80,SSE,163,6.0,14.0,68,0.00,,,0.00,weatherlink.com 1.10,2013-09-24 03:23:00,
2013-09-23 22:30:00,63.7,53.0,29.80,SE,135,7.0,14.0,68,0.00,,---,0.00,VWS V14.01,2013-09-24 03:30:00,
2013-09-23 22:38:00,63.6,53.0,29.79,SE,126,8.0,12.0,68,0.00,,,0.00,weatherlink.com 1.10,2013-09-24 03:38:00,
2013-09-23 22:53:00,63.2,53.0,29.79,SE,134,6.0,14.0,69,0.00,,,0.00,weatherlink.com 1.10,2013-09-24 03:53:00,
2013-09-23 23:00:00,63.3,53.4,29.79,SE,135,7.0,14.0,70,0.00,,---,0.00,VWS V14.01,2013-09-24 04:00:00,
2013-09-23 23:08:00,63.5,53.0,29.78,SE,140,7.0,14.0,69,0.00,,,0.00,weatherlink.com 1.10,2013-09-24 04:08:00,
2013-09-23 23:23:00,63.9,53.0,29.78,SSE,150,8.0,14.0,68,0.00,,,0.00,weatherlink.com 1.10,2013-09-24 04:23:00,
2013-09-23 23:30:00,64.0,53.2,29.77,SE,135,7.0,14.0,68,0.00,,---,0.00,VWS V14.01,2013-09-24 04:30:00,
2013-09-23 23:38:00,64.1,53.0,29.77,ESE,106,12.0,18.0,68,0.00,,,0.00,weatherlink.com 1.10,2013-09-24 04:38:00,
2013-09-23 23:53:00,64.0,53.0,29.77,SE,142,9.0,13.0,68,0.00,,,0.00,weatherlink.com 1.10,2013-09-24 04:53:00,